Thermopolis, WY

5:13 AM MST on December 17, 2017 (GMT -0700)
Thermopolis

Weather History for KTBX - January, 2013

Change the Weather History Date:

Monday, January 28, 2013

  Actual Average (KWRL) Record (KWRL)
Temperature  
Mean Temperature 17 °F -  
Max Temperature 19 °F 31 °F 54 °F (1971)
Min Temperature 14 °F 4 °F -28 °F (1980)
Degree Days  
Heating Degree Days 48    
Moisture  
Dew Point 15 °F    
Average Humidity 91    
Maximum Humidity 100    
Minimum Humidity 86    
Precipitation  
Precipitation 0.00 in - - ()
Sea Level Pressure  
Sea Level Pressure 29.74 in    
Wind  
Wind Speed 18 mph (NW)    
Max Wind Speed 26 mph    
Max Gust Speed -    
Averages and records for this station are not official NWS values.
T = Trace of Precipitation, MM = Missing Value Source: NWS Daily Summary

Daily Weather History Graph

Daily Weather History Graph

Search for Another Location

Airport or City:

Trip Planner

Search our weather history database for the weather conditions in past years. The results will help you decide how hot, cold, wet, or windy it might be!

Date:

Astronomy

Jan. 28, 2013 Rise Set
Actual Time 7:32 AM MST 5:19 PM MST
Civil Twilight 7:02 AM MST 5:50 PM MST
Nautical Twilight 6:27 AM MST 6:24 PM MST
Astronomical Twilight 5:54 AM MST 6:58 PM MST
Moon 7:22 PM MST (1/28) 7:55 AM MST (1/28)
Length of Visible Light 10h 48m
Length of Day
9h 46m
Full, 97% of the Moon is Illuminated
Jan 28
Full
Feb 3
Last Quarter
Feb 10
New
Feb 17
First Quarter
Feb 25
Full

Hourly Weather History & Observations

Time (MST) Temp. Windchill Dew Point Humidity Pressure Visibility Wind Dir Wind Speed Gust Speed Precip Events Conditions
12:15 AM - - - N/A% 29.73 in - WNW 26.5 mph - N/A   Overcast
12:35 AM - - - N/A% 29.72 in - NW 25.3 mph - N/A   Overcast
12:55 AM - - - N/A% 29.73 in - NW 23.0 mph - N/A   Overcast
1:15 AM - - - N/A% 29.73 in - WNW 24.2 mph - N/A   Overcast
1:35 AM - - - N/A% 29.72 in - WNW 24.2 mph - N/A   Overcast
1:55 AM - - - N/A% 29.72 in - NW 26.5 mph - N/A   Overcast
2:15 AM 19.4 °F 2.8 °F 17.6 °F 93% 29.73 in - NW 21.9 mph - N/A   Overcast
2:35 AM 19.4 °F 3.2 °F 17.6 °F 93% 29.73 in - WNW 20.7 mph - N/A   Overcast
2:55 AM 19.4 °F 3.6 °F 17.6 °F 93% 29.74 in - NW 19.6 mph - N/A   Overcast
3:15 AM 19.4 °F 3.6 °F 17.6 °F 93% 29.75 in - NW 19.6 mph - N/A   Overcast
3:35 AM 17.6 °F 1.3 °F 17.6 °F 100% 29.74 in - NW 19.6 mph - N/A   Overcast
3:55 AM 17.6 °F 0.9 °F 15.8 °F 93% 29.74 in - NW 20.7 mph - N/A   Overcast
4:15 AM 17.6 °F 1.3 °F 15.8 °F 93% 29.73 in - NW 19.6 mph - N/A   Overcast
4:35 AM 17.6 °F 1.3 °F 15.8 °F 93% 29.73 in - NW 19.6 mph - N/A   Overcast
4:55 AM - - - N/A% 29.73 in - NW 19.6 mph - N/A   Overcast
5:15 AM 17.6 °F 0.9 °F 15.8 °F 93% 29.73 in - NW 20.7 mph - N/A   Overcast
5:35 AM 17.6 °F 0.9 °F 15.8 °F 93% 29.74 in - NW 20.7 mph - N/A   Overcast
6:15 AM 17.6 °F 1.7 °F 15.8 °F 93% 29.74 in - NW 18.4 mph - N/A   Overcast
6:35 AM 17.6 °F 1.7 °F 15.8 °F 93% 29.75 in - WNW 18.4 mph - N/A   Overcast
6:55 AM 17.6 °F 1.7 °F 15.8 °F 93% 29.75 in - NW 18.4 mph - N/A   Overcast
7:15 AM - - - N/A% 29.75 in - NW 18.4 mph - N/A   Overcast
7:35 AM 17.6 °F 1.7 °F 14.0 °F 86% 29.75 in - NW 18.4 mph - N/A   Overcast
7:55 AM - - - N/A% 29.75 in - NW 19.6 mph - N/A   Overcast
8:15 AM - - - N/A% 29.75 in - WNW 17.3 mph - N/A   Overcast
8:35 AM - - - N/A% 29.75 in - North - - N/A   Overcast
8:55 AM 17.6 °F 0.9 °F 14.0 °F 86% 29.75 in - NW 20.7 mph - N/A   Overcast
9:15 AM - - - N/A% 29.75 in - NW 20.7 mph - N/A   Unknown
9:55 AM 17.6 °F 1.7 °F 14.0 °F 86% 29.76 in - NW 18.4 mph - N/A   Unknown
10:15 AM - - - N/A% 29.77 in - NW 16.1 mph - N/A   Unknown
10:35 AM - - - N/A% 29.76 in - North - - N/A   Unknown
10:55 AM - - - N/A% 29.77 in - North - - N/A   Overcast
11:15 AM - - - N/A% 29.77 in - North - - N/A   Unknown
11:35 AM - - - N/A% 29.77 in - North - - N/A   Unknown
11:55 AM - - - N/A% 29.76 in - North - - N/A   Unknown
12:15 PM - - - N/A% 29.76 in - North - - N/A   Unknown
12:35 PM - - - N/A% 29.76 in - NW 11.5 mph - N/A   Unknown
12:55 PM - - - N/A% 29.75 in - NW 9.2 mph - N/A   Unknown
1:15 PM - - - N/A% 29.75 in - NW 11.5 mph - N/A   Unknown
1:35 PM 17.6 °F 4.3 °F 15.8 °F 93% 29.74 in - NW 12.7 mph - N/A   Overcast
1:55 PM - - - N/A% 29.73 in - North - - N/A   Unknown
2:15 PM 17.6 °F - 14.0 °F 86% 29.73 in - North - - N/A   Unknown
2:35 PM 15.8 °F 6.1 °F 14.0 °F 93% 29.73 in - NW 6.9 mph - N/A   Unknown
2:55 PM 17.6 °F 5.7 °F 15.8 °F 93% 29.73 in - NW 10.4 mph - N/A   Unknown
3:15 PM 19.4 °F 7.9 °F 17.6 °F 93% 29.73 in - NW 10.4 mph - N/A   Overcast
3:35 PM 17.6 °F 9.3 °F 15.8 °F 93% 29.74 in - NW 5.8 mph - N/A   Unknown
3:55 PM 17.6 °F 9.3 °F 15.8 °F 93% 29.75 in - NW 5.8 mph - N/A   Unknown
4:15 PM 17.6 °F 9.3 °F 14.0 °F 86% 29.75 in - NW 5.8 mph - N/A   Unknown
4:35 PM 17.6 °F 9.3 °F 14.0 °F 86% 29.74 in - NW 5.8 mph - N/A   Overcast
5:15 PM 17.6 °F - 14.0 °F 86% 29.74 in - Calm Calm - N/A   Unknown
5:35 PM 17.6 °F - 14.0 °F 86% 29.75 in - North - - N/A   Unknown
5:55 PM 17.6 °F - 15.8 °F 93% 29.75 in - North - - N/A   Unknown
6:15 PM 17.6 °F - 14.0 °F 86% 29.75 in - North - - N/A   Unknown
6:35 PM 17.6 °F - 14.0 °F 86% 29.75 in - North - - N/A   Unknown
6:55 PM 17.6 °F - 14.0 °F 86% 29.75 in - North - - N/A   Unknown
7:15 PM 15.8 °F - 14.0 °F 93% 29.75 in - Calm Calm - N/A   Unknown
7:35 PM 17.6 °F 12.3 °F 14.0 °F 86% 29.75 in - South 3.5 mph - N/A   Unknown
7:55 PM - - - N/A% 29.75 in - South 3.5 mph - N/A   Unknown
8:15 PM - - - N/A% 29.75 in - Calm Calm - N/A   Unknown
8:35 PM - - - N/A% 29.75 in - SSE 3.5 mph - N/A   Unknown
8:55 PM - - - N/A% 29.75 in - SE 5.8 mph - N/A   Unknown
9:15 PM - - - N/A% 29.74 in - SE 9.2 mph - N/A   Overcast
9:35 PM - - - N/A% 29.73 in - SE 5.8 mph - N/A   Overcast
9:55 PM 17.6 °F 12.3 °F 15.8 °F 93% 29.73 in - SE 3.5 mph - N/A   Overcast
10:15 PM 17.6 °F - 15.8 °F 93% 29.73 in - North - - N/A   Overcast
10:35 PM 17.6 °F - 14.0 °F 86% 29.72 in - North - - N/A   Overcast
10:55 PM 15.8 °F - 14.0 °F 93% 29.72 in - Calm Calm - N/A   Mostly Cloudy
11:15 PM 15.8 °F - 14.0 °F 93% 29.72 in - North - - N/A   Unknown
11:35 PM 14.0 °F - 12.2 °F 93% 29.71 in - North - - N/A   Unknown